RH
91 92 90 88 98 98 99 100 75 58 48 42 66 46 58 54 97 98 67 56 39 20 12 10 10 11 12 14 13 12 12 13 14 16 19 21 21 21 20 17 13 11 11 10 10 9 9
82 92 90 93 98 98 97 99 98 94 95 79 52 53 61 94 98 76 67 55 27 18 12 11 11 14 22 21 16 20 21 22 25 26 25 23 20 17 13 10 11 11 10 9 9 9 9
99 89 92 81 99 96 98 98 98 99 97 99 69 70 82 98 81 67 57 47 41 34 25 24 27 35 34 30 31 30 31 29 27 24 20 16 13 11 11 11 10 10 10 9 9 10 10
84 89 94 99 100 99 98 97 98 99 100 98 100 91 96 85 66 62 61 61 62 58 53 50 44 38 37 38 36 33 30 26 22 18 14 12 11 11 10 10 10 10 10 10 9 11 12
86 92 94 99 99 97 94 99 97 96 98 100 98 91 97 82 82 80 79 77 71 64 59 54 46 42 34 30 31 32 26 20 15 13 12 11 10 10 10 10 11 11 16 12 13 13 14
81 80 92 100 100 100 100 100 99 99 100 99 98 99 95 93 87 82 78 73 66 58 52 48 42 34 33 27 21 21 17 15 12 11 10 10 10 10 11 12 21 13 13 14 14 14 12
67 75 86 99 98 100 100 100 100 96 97 99 96 97 98 82 91 85 72 60 49 44 36 34 28 24 20 18 16 14 12 11 11 11 11 12 12 12 13 14 14 14 13 14 13 14 13
65 74 76 81 78 83 98 98 98 93 86 90 95 91 84 81 69 68 60 48 40 30 23 19 18 17 16 15 15 14 13 13 14 14 14 14 13 14 14 13 14 15 17 20 20 21 25
40 50 62 70 70 72 76 76 78 80 71 47 44 60 72 64 64 63 50 37 27 20 21 22 20 19 18 17 16 16 15 14 15 15 14 14 15 14 14 18 19 18 20 25 26 23 22
29 37 40 52 61 68 62 62 56 45 37 31 28 32 38 43 44 45 35 29 22 20 20 23 22 20 18 16 16 15 13 14 13 13 13 14 15 17 22 22 19 21 23 24 23 26 48
17 20 22 33 38 46 55 54 53 53 36 28 32 32 26 25 28 28 26 22 21 20 70 23 24 21 18 20 18 16 15 15 14 13 14 15 19 26 26 25 24 25 23 21 20 25 36
14 13 16 18 20 25 33 35 37 43 36 34 26 20 20 24 25 24 22 21 17 14 32 24 22 19 19 17 16 16 16 15 16 17 18 22 27 29 27 26 25 24 20 15 17 38 79
68 40 19 13 13 16 19 20 23 26 27 25 22 19 17 16 16 17 15 15 13 15 22 22 21 19 18 20 19 20 20 21 22 20 24 25 23 23 25 25 23 22 17 46 67 69 59
51 62 74 65 32 14 11 13 15 15 15 15 14 14 12 11 12 12 13 13 12 18 20 17 17 20 25 24 23 22 20 19 17 17 16 18 21 24 27 26 23 22 19 33 40 31 28
49 49 50 52 61 69 47 19 10 9 10 11 11 10 10 10 10 10 10 11 13 14 14 16 20 25 24 21 21 22 21 21 18 16 11 13 16 19 25 25 26 30 31 25 30 40 50
32 40 47 48 48 49 56 67 50 16 8 8 9 9 8 8 9 11 12 13 13 13 18 20 22 21 22 22 22 18 18 22 19 16 13 13 15 14 18 19 21 26 29 42 31 44 32
24 30 41 48 47 47 47 46 50 58 30 9 7 8 8 8 7 8 11 13 15 17 18 19 19 21 20 19 17 14 21 22 20 19 14 13 13 18 19 19 27 32 28 29 33 36 29
35 36 38 37 44 48 48 48 45 45 54 52 11 8 8 8 8 7 10 12 13 15 15 15 15 15 15 14 11 11 14 18 17 15 14 12 14 14 14 15 19 23 26 29 48 41 53
28 37 37 34 35 39 42 45 49 47 44 53 58 13 8 7 8 8 9 10 13 13 13 13 12 11 12 10 10 11 12 12 13 13 18 18 16 17 18 17 19 22 19 23 30 43 57
21 31 32 29 33 33 34 35 33 46 52 43 55 45 26 11 9 8 8 9 10 12 11 10 10 10 10 10 10 11 11 11 12 13 15 18 18 15 21 11 14 17 17 20 28 64 38
10 19 23 20 26 28 31 29 31 37 55 54 45 62 70 71 34 20 16 13 10 10 10 10 11 11 11 11 12 12 12 13 14 14 16 21 21 17 16 17 21 22 24 27 29 25 46
14 11 10 11 22 20 13 18 43 49 52 66 53 43 56 83 84 78 63 28 23 22 22 22 21 22 26 28 26 28 29 31 34 29 28 30 38 36 33 27 27 26 24 26 24 27 40
16 14 11 9 10 14 9 16 47 52 55 64 69 49 43 55 76 84 85 76 72 78 65 51 53 64 63 61 58 61 74 72 56 45 42 46 49 51 51 37 38 34 18 16 18 19 24
16 13 11 10 10 10 10 16 36 52 60 72 78 66 53 51 45 49 67 86 94 95 93 88 90 91 86 89 88 86 80 76 79 79 74 64 62 63 60 42 44 22 27 24 25 37 38
14 12 11 11 14 14 22 36 47 50 64 77 81 79 65 64 60 46 46 44 64 76 82 77 76 89 87 72 79 79 79 72 57 52 54 62 70 78 65 65 40 42 22 32 42 39 33
13 12 12 14 15 20 34 50 48 50 66 77 88 83 80 74 66 61 48 54 53 50 49 49 54 58 64 60 71 93 84 72 70 64 56 48 48 81 76 66 45 36 39 45 50 42 33
25 22 19 23 32 42 55 64 64 70 77 74 94 92 92 88 80 75 71 66 59 64 67 67 62 60 62 64 76 87 83 69 69 66 55 52 56 73 95 83 50 44 47 45 54 47 49
92 87 71 52 47 42 64 68 88 84 95 94 81 93 88 85 87 82 71 72 69 70 72 68 68 60 65 66 68 73 73 74 72 67 62 54 52 55 89 97 76 49 53 59 63 64 72
88 90 86 87 76 63 69 97 98 99 100 100 97 92 83 79 81 81 78 75 62 58 64 63 64 60 66 64 72 75 74 74 68 70 68 68 61 57 56 50 52 55 64 69 73 80 82
Wind_Speed
27 27 28 26 30 34 28 32 35 32 25 24 22 20 18 19 21 25 27 24 27 29 27 26 26 25 26 23 20 21 20 18 17 15 14 12 11 10 10 9 7 7 6 5 6 8 10
27 27 27 28 32 34 37 34 30 31 27 24 21 22 20 24 26 28 28 25 28 29 27 26 26 25 22 17 21 21 19 17 14 12 11 10 9 8 7 5 6 4 4 6 8 11 14
40 30 35 37 42 42 42 41 30 34 31 29 23 23 28 25 34 31 30 27 30 28 26 25 26 22 20 18 19 18 16 14 12 10 8 8 8 7 5 5 5 4 6 8 12 14 17
42 42 40 36 40 40 39 39 36 38 38 33 31 29 26 33 36 32 30 29 29 27 24 22 21 18 18 18 17 15 13 11 10 8 7 7 7 6 5 4 4 6 10 11 13 16 19
42 43 42 41 44 45 40 38 36 40 36 42 41 35 39 34 35 32 28 28 27 24 22 19 17 16 15 14 13 12 11 9 9 8 8 7 6 6 5 5 7 8 7 13 17 17 21
35 37 39 37 36 36 37 36 33 29 34 33 34 37 32 29 29 26 24 24 23 20 18 16 14 10 11 12 11 12 11 11 10 10 9 8 7 6 6 6 4 8 11 15 17 19 22
36 34 32 30 31 32 30 30 30 31 30 28 25 24 29 19 19 21 20 20 19 18 13 11 11 9 12 12 12 12 12 12 11 10 9 8 7 6 7 7 8 10 12 15 18 22 23
27 29 30 28 28 28 25 26 25 25 26 24 20 19 15 19 17 17 17 18 14 16 17 15 16 13 13 12 12 11 11 10 9 8 7 6 6 5 5 6 7 9 12 15 15 17 23
24 25 25 24 22 23 22 23 21 20 21 21 18 18 19 15 20 17 16 14 16 18 18 17 13 12 11 11 10 9 8 8 8 7 6 5 3 4 4 5 7 9 11 12 17 22 22
21 21 22 21 19 17 17 17 19 20 18 21 25 23 19 19 16 15 16 15 18 14 9 10 9 8 9 8 7 7 6 5 5 4 4 3 3 3 5 6 7 10 10 15 20 19 8
20 18 18 17 16 15 14 12 13 15 16 18 18 18 18 19 19 18 16 14 9 6 3 6 6 7 7 3 8 5 5 3 4 4 4 4 4 5 6 7 8 9 14 18 22 21 13
19 18 17 17 15 13 12 12 11 11 11 11 11 11 9 8 9 10 7 7 4 1 3 6 6 7 6 6 5 6 4 4 4 4 4 5 5 6 7 8 10 12 14 21 13 8 3
21 21 19 18 16 14 13 11 10 8 6 5 6 6 4 2 4 6 7 6 3 1 10 9 9 9 7 6 5 4 3 2 1 1 4 5 8 9 9 9 9 8 12 5 3 2 2
23 21 20 19 18 16 14 13 11 10 9 8 8 8 8 9 6 7 9 7 2 11 7 10 10 8 6 6 4 3 2 2 2 2 4 3 3 5 5 5 6 8 4 1 4 3 5
21 23 24 22 20 18 17 16 12 11 11 10 10 10 11 10 9 8 8 3 5 10 13 11 10 7 6 4 3 2 4 4 3 2 1 2 4 7 9 9 6 3 3 5 4 5 5
18 20 22 23 24 23 21 18 17 14 12 10 9 8 10 11 11 8 7 8 10 12 12 11 4 5 5 4 3 3 4 5 4 4 2 2 4 6 7 7 8 8 5 2 2 3 4
15 16 19 21 22 23 24 23 20 16 14 10 7 5 6 7 7 7 7 11 11 10 8 5 4 4 4 3 3 3 4 3 4 3 6 7 4 4 6 5 6 6 5 3 3 3 3
12 14 14 17 19 21 22 22 22 21 16 11 7 4 2 2 3 3 5 7 8 8 6 4 4 3 4 2 3 3 4 4 4 6 8 5 5 6 8 9 10 10 10 8 4 3 6
13 12 11 13 15 18 20 22 23 21 19 15 10 6 3 2 0 1 3 5 4 5 4 3 3 3 4 3 2 3 5 5 5 7 3 6 4 6 4 5 6 10 8 10 13 14 13
12 12 12 13 13 13 16 21 24 23 18 16 12 6 5 3 1 1 2 3 4 5 4 5 4 5 5 5 5 4 5 6 8 10 10 10 11 10 9 11 15 19 23 21 18 11 13
15 14 14 14 15 16 16 19 22 23 21 15 12 6 6 5 3 3 3 3 4 5 6 6 5 5 5 5 7 9 8 9 9 11 13 13 16 19 21 22 24 30 31 30 34 35 20
17 17 16 16 14 17 20 22 24 21 20 17 12 10 7 3 4 3 2 3 5 5 6 6 7 8 8 7 9 13 15 14 13 14 13 16 16 20 32 23 18 25 27 31 32 34 35
20 20 20 18 17 18 20 22 24 22 19 17 13 9 7 5 4 4 4 4 3 5 6 6 6 9 10 10 12 13 16 17 19 20 20 21 18 15 11 16 27 20 3 5 9 12 14
23 23 23 22 21 20 21 23 24 24 19 17 12 11 9 7 6 5 5 6 9 9 9 9 11 12 12 14 16 17 18 19 22 24 26 26 21 15 16 16 4 3 18 13 3 7 14
28 27 26 26 25 24 24 25 25 25 20 16 12 11 10 10 8 3 7 6 7 7 8 12 13 12 15 16 18 13 11 12 11 15 20 23 23 9 6 7 21 11 4 6 14 4 5
30 30 29 29 30 28 27 27 26 25 22 18 14 11 11 11 10 9 6 10 11 12 13 12 12 14 17 20 16 6 4 8 6 7 7 9 15 15 8 5 5 7 14 20 14 11 14
29 32 32 30 31 30 30 28 28 28 25 20 18 17 15 15 11 14 19 15 11 13 17 18 20 19 18 15 14 12 10 12 7 7 7 7 12 22 17 9 14 19 17 14 4 6 15
34 35 36 37 34 34 32 33 27 27 25 22 22 22 24 24 23 17 14 16 21 22 23 24 25 24 16 15 12 12 12 13 13 17 11 8 7 10 12 10 13 7 4 7 24 40 41
36 36 38 39 39 39 37 30 31 28 27 25 25 25 27 28 27 29 29 28 25 22 22 24 24 23 16 16 13 12 15 18 19 14 17 18 18 16 17 16 19 23 34 43 45 46 50
Wind_Direction
43 40 38 43 40 40 43 63 101 96 99 114 127 133 132 162 149 130 127 129 134 130 138 148 151 150 148 150 152 150 152 156 159 164 169 178 191 202 209 220 220 221 229 246 265 280 286
46 39 36 48 50 44 65 79 81 93 99 111 122 117 128 155 134 119 120 124 121 124 134 142 143 142 139 146 147 146 147 154 156 168 173 188 204 209 209 199 209 219 248 275 288 290 290
51 51 56 66 61 61 74 78 84 86 87 95 106 122 138 117 112 115 114 118 116 120 130 137 137 135 128 146 146 146 149 154 159 172 177 189 191 191 187 197 222 248 274 286 287 288 289
57 69 69 71 64 69 76 82 83 94 99 98 115 106 116 110 106 109 112 112 111 117 124 128 134 129 126 142 146 149 155 159 162 168 170 172 177 181 192 213 250 274 283 284 291 291 293
62 63 70 74 72 74 83 85 86 97 102 105 109 106 108 107 106 109 110 110 111 117 121 122 127 122 127 123 138 153 155 158 159 165 169 169 178 186 206 237 265 269 268 285 291 293 292
55 58 65 69 71 79 79 76 76 90 101 98 101 103 102 104 107 110 111 110 113 114 114 112 119 119 135 135 137 147 154 156 157 160 164 174 188 207 226 246 258 271 285 289 295 294 293
60 57 59 69 66 78 82 83 77 71 72 91 97 95 102 108 104 102 106 108 112 112 111 116 120 122 134 138 143 147 151 155 160 168 176 188 207 223 245 260 273 288 296 298 300 300 300
55 60 60 64 68 75 76 77 79 79 78 82 88 96 96 125 132 124 120 125 125 124 126 124 127 135 135 142 148 152 157 161 170 178 191 203 224 243 268 285 295 300 306 304 305 307 308
54 57 60 62 66 68 70 71 69 70 73 77 80 94 104 104 137 139 135 135 136 138 123 121 127 136 141 143 149 159 167 177 186 199 207 221 230 248 271 291 300 302 307 303 308 312 310
54 54 58 58 60 64 68 71 72 67 69 82 86 88 96 108 109 128 124 129 129 126 104 119 127 131 142 146 141 158 164 168 170 175 185 213 223 250 273 279 293 305 305 308 311 319 306
46 50 50 52 53 56 63 61 55 65 82 95 84 85 91 99 107 114 126 130 129 110 90 139 125 137 142 148 149 157 170 173 181 187 198 228 240 248 258 278 295 297 313 314 309 307 308
42 39 43 46 45 45 55 58 57 59 72 87 84 76 78 110 129 135 149 167 167 143 101 150 151 147 151 149 165 160 165 170 188 213 232 245 243 252 273 292 306 314 319 312 308 304 266
42 41 37 38 42 42 37 43 54 54 47 34 23 9 20 149 185 194 177 165 159 132 154 150 152 152 154 151 143 148 150 164 208 252 246 266 268 271 278 292 303 311 324 318 306 308 299
40 42 43 39 38 37 34 35 35 43 43 40 44 51 72 88 127 151 152 153 137 142 149 148 149 149 153 152 150 156 176 210 244 271 281 257 288 254 253 252 274 301 326 316 287 307 312
39 37 36 37 35 36 39 35 29 27 30 37 49 64 71 73 86 105 127 124 122 143 148 150 150 152 161 174 179 218 238 235 237 240 306 263 263 243 248 255 260 268 289 295 266 295 286
27 30 33 34 33 32 29 30 29 26 28 31 38 54 61 64 66 79 108 115 136 141 145 147 153 177 190 199 210 231 231 209 220 218 295 251 276 249 251 262 263 254 288 320 305 318 296
17 23 25 27 27 30 29 27 21 22 20 22 30 34 51 61 64 78 98 116 132 142 152 166 174 172 188 203 236 255 221 226 238 255 314 306 261 261 266 244 246 260 265 241 257 228 288
5 6 17 19 19 19 23 24 21 19 15 12 10 9 16 38 47 85 114 129 143 154 162 166 173 185 196 224 279 265 233 241 250 282 302 282 279 262 259 266 263 259 248 232 225 223 230
345 355 3 8 15 12 14 16 16 14 14 10 10 17 2 342 12 115 147 155 171 180 189 204 213 222 227 261 282 243 241 261 257 284 276 297 278 305 282 275 254 251 258 258 255 257 232
321 333 336 345 355 6 7 4 2 3 5 8 6 10 1 2 357 257 233 238 221 211 228 239 239 244 265 268 267 265 269 281 280 283 280 287 272 247 260 280 286 277 280 275 258 242 260
298 305 315 325 330 341 347 349 351 347 349 356 4 356 354 335 327 303 277 250 237 257 265 268 267 265 273 285 293 282 279 287 291 285 282 283 276 281 280 283 284 283 278 271 263 263 255
294 296 300 309 314 320 330 338 340 342 336 341 345 350 347 335 324 315 302 279 274 269 267 270 269 281 286 285 273 285 289 289 286 284 277 277 279 291 295 297 283 286 284 279 271 266 261
293 297 300 300 305 310 318 328 333 337 335 330 332 336 341 329 316 306 288 273 270 292 290 284 290 292 289 286 285 283 287 284 278 275 273 273 277 294 286 304 309 297 85 350 315 302 295
287 289 294 298 302 306 314 323 325 326 328 326 325 314 326 340 329 311 292 282 278 279 274 277 287 289 288 287 289 289 284 278 273 270 266 264 270 280 282 310 264 241 309 313 349 342 301
284 286 289 294 299 304 311 319 316 315 315 315 318 312 306 314 328 328 314 309 303 299 289 295 300 291 293 306 309 308 298 291 280 271 262 257 253 255 269 281 287 288 232 339 344 338 210
279 283 285 288 294 298 305 311 312 311 307 296 299 299 301 304 295 296 292 316 303 295 296 300 297 297 297 300 300 271 265 285 275 278 271 262 236 223 246 248 264 271 301 305 307 247 236
276 281 284 285 287 290 294 298 299 300 299 291 296 293 293 294 287 288 296 290 277 290 293 295 297 292 296 291 278 268 260 256 255 248 252 240 231 229 234 256 266 282 284 295 265 262 284
277 277 278 281 282 282 285 291 292 292 292 296 287 290 292 285 293 285 282 287 286 289 291 293 296 294 287 276 268 265 260 256 253 250 255 249 247 230 210 230 268 237 241 290 296 297 298
278 280 282 280 278 276 284 284 283 286 285 286 284 287 285 290 286 286 288 290 285 285 283 286 284 285 273 269 259 249 248 258 266 255 250 254 258 258 253 262 272 278 285 288 290 293 294